Weather History for Newport, AR

Change the Weather History Date:

Thursday, September 27, 2012

  Actual Average (KJBR) Record (KJBR)
Temperature  
Mean Temperature 72 °F 68 °F  
Max Temperature 84 °F 79 °F 97 °F (1939)
Min Temperature 61 °F 56 °F 36 °F (1942)
Degree Days  
Heating Degree Days 0 2  
Month to date heating degree days 12  
Since 1 July heating degree days 12  
Cooling Degree Days 8 4  
Month to date cooling degree days 213  
Year to date cooling degree days 1759  
Growing Degree Days 22 (Base 50)    
Moisture  
Dew Point 66 °F    
Average Humidity 86    
Maximum Humidity 100    
Minimum Humidity 57    
Precipitation  
Precipitation 0.43 in 0.12 in 3.32 in (1935)
Month to date precipitation 2.65  
Year to date precipitation 33.76  
Snow  
Snow 0.00 in - 0.00 in (2002)
Month to date snowfall  
Since 1 July snowfall  
Since 1 September snowfall  
Snow Depth -    
Sea Level Pressure  
Sea Level Pressure 30.10 in    
Wind  
Wind Speed 4 mph (NW)    
Max Wind Speed 23 mph    
Max Gust Speed 31 mph    
Visibility 8 miles    
Events Rain , Thunderstorm    
T = Trace of Precipitation, MM = Missing Value Source: NWS Daily Summary

Daily Weather History Graph

Daily Weather History Graph

Search for Another Location

Airport:

Trip Planner

Search our weather history database for the weather conditions in past years. The results will help you decide how hot, cold, wet, or windy it might be!

Date:

Astronomy

Sep. 27, 2012 Rise Set
Actual Time 6:56 AM CDT 6:53 PM CDT
Civil Twilight 6:31 AM CDT 7:18 PM CDT
Nautical Twilight 6:01 AM CDT 7:48 PM CDT
Astronomical Twilight 5:31 AM CDT 8:18 PM CDT
Moon 5:22 PM CDT (9/27) 4:30 AM CDT (9/27)
Length of Visible Light 12h 47m
Length of Day
11h 56m
Waxing Gibbous, 94% of the Moon is Illuminated
Sep 27
Waxing Gibbous
Sep 29
Full
Oct 8
Last Quarter
Oct 15
New
Oct 21
First Quarter

Hourly Weather History & Observations

Time (CDT) Temp. Heat Index Dew Point Humidity Pressure Visibility Wind Dir Wind Speed Gust Speed Precip Events Conditions
12:56 AM 66.9 °F - 63.0 °F 87% 30.08 in 10.0 mi South 3.5 mph - N/A   Scattered Clouds
2:56 AM 65.8 °F - 63.9 °F 93% 30.06 in 10.0 mi Calm Calm - N/A   Clear
3:56 AM 61.9 °F - 61.9 °F 100% 30.09 in 9.0 mi Calm Calm - N/A   Clear
4:56 AM 63.9 °F - 63.0 °F 97% 30.09 in 9.0 mi ENE 4.6 mph - N/A   Partly Cloudy
5:56 AM 63.9 °F - 63.9 °F 100% 30.11 in 7.0 mi NE 4.6 mph - N/A   Scattered Clouds
6:56 AM 64.9 °F - 64.9 °F 100% 30.11 in 7.0 mi Calm Calm - N/A   Overcast
7:56 AM 65.8 °F - 65.8 °F 100% 30.13 in 6.0 mi Calm Calm - N/A   Mostly Cloudy
8:09 AM 66.2 °F - 66.2 °F 100% 30.14 in 5.0 mi North 3.5 mph - N/A Thunderstorm Overcast
8:56 AM 66.9 °F - 65.8 °F 96% 30.14 in 6.0 mi North - - 0.00 in   Overcast
9:56 AM 72.9 °F - 65.8 °F 79% 30.14 in 10.0 mi Calm Calm - N/A   Clear
10:56 AM 74.8 °F - 66.9 °F 76% 30.13 in 10.0 mi Calm Calm - N/A   Clear
11:56 AM 79.0 °F - 68.0 °F 69% 30.13 in 10.0 mi Calm Calm - N/A   Clear
12:56 PM 81.9 °F 84.2 °F 66.9 °F 60% 30.10 in 10.0 mi South 3.5 mph - N/A   Clear
1:56 PM 84.9 °F 88.2 °F 68.0 °F 57% 30.07 in 10.0 mi Calm Calm - N/A   Scattered Clouds
2:56 PM 84.9 °F 88.2 °F 68.0 °F 57% 30.05 in 10.0 mi South 5.8 mph - N/A   Partly Cloudy
3:56 PM 83.8 °F 87.0 °F 68.0 °F 59% 30.05 in 10.0 mi SW 5.8 mph - N/A   Partly Cloudy
4:56 PM 79.9 °F - 70.9 °F 74% 30.04 in 10.0 mi Calm Calm - N/A Thunderstorm Thunderstorm
5:56 PM 72.0 °F - 64.9 °F 78% 30.09 in 9.0 mi WNW 20.7 mph 31.1 mph 0.00 in Rain , Thunderstorm Light Thunderstorms and Rain
6:23 PM 69.8 °F - 66.2 °F 88% 30.11 in 1.8 mi WNW 23.0 mph 28.8 mph 0.28 in Rain , Thunderstorm Heavy Thunderstorms and Rain
6:28 PM 69.8 °F - 66.2 °F 88% 30.10 in 2.0 mi NW 19.6 mph 28.8 mph 0.34 in Rain , Thunderstorm Heavy Thunderstorms and Rain
6:33 PM 69.8 °F - 66.2 °F 88% 30.09 in 4.0 mi NNW 16.1 mph - 0.35 in Rain , Thunderstorm Light Thunderstorms and Rain
6:56 PM 68.0 °F - 66.9 °F 96% 30.09 in 10.0 mi NNE 13.8 mph - 0.36 in Rain , Thunderstorm Light Thunderstorms and Rain
7:07 PM 69.8 °F - 66.2 °F 88% 30.10 in 9.0 mi NNE 6.9 mph - 0.03 in Rain Rain
7:56 PM 68.9 °F - 65.8 °F 90% 30.09 in 10.0 mi Variable 3.5 mph - 0.07 in Rain Light Rain
8:56 PM 68.0 °F - 66.9 °F 96% 30.09 in 10.0 mi WNW 5.8 mph - 0.00 in Rain Light Rain
9:56 PM 68.0 °F - 66.9 °F 96% 30.09 in 10.0 mi NW 4.6 mph - 0.00 in Rain Light Rain
10:56 PM 68.0 °F - 66.9 °F 96% 30.10 in 9.0 mi Calm Calm - 0.00 in   Mostly Cloudy
11:56 PM 68.0 °F - 68.0 °F 100% 30.10 in 7.0 mi NW 3.5 mph - N/A   Scattered Clouds